Hourly Weather Roundup
Issued by NWS Central Illinois

Home | Current Version | Previous Version | Text Only | Print | Product List | Glossary Off
Versions: 1 2 3 4 5 6 7 8 9 10 11 12 13 14 15 16 17 18 19 20 21 22 23 24 25 26 27 28 29 30 31 32 33 34 35 36 37 38 39 40 41 42 43 44 45 46 47 48 49 50

000
NZUS43 KILX 311710
HWRILX

AREA WEATHER ROUNDUP
NATIONAL WEATHER SERVICE, LINCOLN IL
1200 PM CDT THU JUL 31 2014


CITY           SKY/WX    TMP DP  RH WIND       PRES   REMARKS
BLOOMINGTON    SUNNY     78  58  50 W6        30.11S
CHAMPAIGN      SUNNY     79  57  46 W8        30.10F HX  80
DECATUR        SUNNY     79  60  52 W7        30.10F HX  80
FLORA          SUNNY     80  60  50 SW3       30.10F HX  80
GALESBURG      SUNNY     82  64  56 W7        30.10S HX  83
JACKSONVILLE   SUNNY     81  62  52 NW6       30.11F HX  82
LACON          SUNNY     80  59  50 W7        30.07F HX  80
LAWRENCEVILLE  MOSUNNY   80  64  58 SW6       30.10S HX  82
LITCHFIELD     MOSUNNY   78  58  48 W3        30.11S
$$


CITY           SKY/WX    TMP DP  RH WIND       PRES   REMARKS
LINCOLN        MOSUNNY   80  61  52 CALM      30.07S HX  81
MACOMB         SUNNY     77  62  58 W7        30.12S
MATTOON        MOSUNNY   78  60  53 W5        30.10S
MT CARMEL AP   MOSUNNY   82  64  54 W3        30.10S HX  84
OLNEY-NOBLE AP SUNNY     79  63  57 CALM      30.11S HX  80
PARIS          MOSUNNY   79  65  62 SW5       30.11S HX  80
PEORIA         MOSUNNY   81  61  50 W5        30.09S HX  82
PONTIAC        SUNNY     81  64  57 W9        30.08F HX  82
RANTOUL        SUNNY     79  58  48 CALM      30.11S HX  80
ROBINSON       MOSUNNY   81  63  54 CALM      30.11S HX  82
SPRINGFIELD    MOSUNNY   80  62  54 W6        30.10S HX  81
TAYLORVILLE    SUNNY     77  61  57 SW3       30.10S
$$

...REGIONAL REPORTS...


CITY           SKY/WX    TMP DP  RH WIND       PRES   REMARKS
CHICAGO O`HARE MOSUNNY   81  56  42 W14G20    30.03F HX  81
KANKAKEE       SUNNY     78  62  58 W8        30.08F
MOLINE         SUNNY     80  60  50 W9        30.08S HX  81
MOUNT VERNON   MOSUNNY   81  64  57 S5        30.11F HX  82
PITTSFIELD     MOSUNNY   80  59  49 CALM      30.12S HX  80
QUINCY         MOSUNNY   78  59  51 CALM      30.11S
ROCKFORD       MOSUNNY   79  59  50 W13G18    30.07S HX  80
$$


CITY           SKY/WX    TMP DP  RH WIND       PRES   REMARKS
BURLINGTON     SUNNY     78  62  57 SW6       30.09F HX  80
CEDAR RAPIDS   MOSUNNY   78  61  55 W9        30.08S HX  80
DES MOINES     MOSUNNY   80  57  45 VRB3      30.10S HX  80
KIRKSVILLE     SUNNY     79  57  46 VRB3      30.12F HX  80
OTTUMWA        SUNNY     76  62  62 VRB6      30.10F
ST LOUIS       MOSUNNY   82  58  43 CALM      30.10S HX  82
$$


CITY           SKY/WX    TMP DP  RH WIND       PRES   REMARKS
TERRE HAUTE    SUNNY     80  58  46 VRB5      30.10S HX  80
EVANSVILLE     MOSUNNY   80  58  46 SW3       30.11S HX  80
INDIANAPOLIS   MOSUNNY   78  60  53 W14       30.10S
LAFAYETTE      SUNNY     77  58  51 W10       30.08S
MADISON        MOSUNNY   79  59  50 NW12      30.03S HX  80
MILWAUKEE      MOSUNNY   79  59  50 W10G17    30.01S HX  80
$$




USA.gov is the U.S. government's official web portal to all federal, state and local government web resources and services.